This demonstration page uses our WeatherBlox Daily Observations layout. Learn more.

Left ArrowRight Arrow

39.92423, -83.80882

Hourly Observations for June 29, 2018

Temp ( °F °C ) Dew Point ( °F °C ) Humidity (%) Winds ( mph kmh ) Pressure ( in mb ) Visibility ( mi km ) Precip ( " mm )
12:56 am 00:56 Clear 68 20 66 18.9 93 93 S 3 6 30.01 1016 10 16.0934 N/A
1:56 am 01:56 Clear 66 18.9 65 18.3 96 96 ESE 5 7 30 1016 10 16.0934 N/A
2:56 am 02:56 Clear 67 19.4 65 18.3 93 93 SE 6 9 29.99 1016 9 14.48406 N/A
3:56 am 03:56 Clear 65 18.3 64 17.8 97 97 ESE 5 7 29.99 1016 10 16.0934 N/A
4:56 am 04:56 Clear 65 18.3 63 17.2 93 93 SE 5 7 29.99 1016 10 16.0934 N/A
5:56 am 05:56 Clear 65 18.3 63 17.2 93 93 N N/A 30.02 1017 10 16.0934 N/A
6:51 am 06:51 Sunny with Light Rain 64 18 63 17 94 94 N N/A 30.03 1017 0.75 1.207005 N/A
6:56 am 06:56 Sunny with Light Rain 65 18.3 63 17.2 93 93 N N/A 30.04 1017 7 11.26538 N/A
7:56 am 07:56 Sunny 70 21.1 67 19.4 90 90 N N/A 30.07 1018 9 14.48406 N/A
9:56 am 09:56 Sunny 79 26.1 70 21.1 74 74 S 8 13 30.09 1019 10 16.0934 N/A
10:56 am 10:56 Sunny 81 27.2 70 21.1 69 69 S 9 15 30.08 1019 10 16.0934 N/A
11:56 am 11:56 Sunny 82 27.8 70 21.1 67 67 SE 7 11 30.08 1019 10 16.0934 N/A
12:56 pm 12:56 Sunny 83 28.3 70 21.1 65 65 SSW 5 7 30.07 1018 10 16.0934 N/A
1:56 pm 13:56 Sunny 84 28.9 71 21.7 65 65 SW 9 15 30.06 1018 10 16.0934 N/A
2:56 pm 14:56 Sunny 85 29.4 70 21.1 61 61 S 3 6 30.06 1018 10 16.0934 N/A
3:56 pm 15:56 Sunny 86 30 72 22.2 63 63 SSW 5 7 30.04 1017 10 16.0934 N/A
4:56 pm 16:56 Sunny 86 30 72 22.2 63 63 SSW 6 9 30.04 1017 10 16.0934 N/A
5:56 pm 17:56 Sunny 86 30 72 22.2 63 63 SSW 7 11 30.03 1017 10 16.0934 N/A
6:56 pm 18:56 Sunny 85 29.4 71 21.7 63 63 VRB 5 7 30.03 1017 10 16.0934 N/A
7:56 pm 19:56 Sunny 84 28.9 71 21.7 65 65 S 5 7 30.03 1017 10 16.0934 N/A
8:56 pm 20:56 Sunny 79 26.1 72 22.2 79 79 SSE 6 9 30.03 1017 10 16.0934 N/A
9:56 pm 21:56 Clear 77 25 72 22.2 85 85 SSE 5 7 30.04 1017 9 14.48406 N/A
10:56 pm 22:56 Clear 76 24.4 71 21.7 85 85 SE 5 7 30.05 1018 10 16.0934 N/A
11:56 pm 23:56 Clear 74 23.3 70 21.1 88 88 SSE 6 9 30.06 1018 10 16.0934 N/A

Powered by AerisWeather